Location: Unspecified
(0.0000°N, 0.0000°E)
Time: 10:16:25
(UTC+00:00)

N. Korean satellite - Pass Details

Date: 18 February 2019
Orbit: 457 x 508 km, 97.2° (Epoch: 22 April)

Event Time Altitude Azimuth Distance (km) Brightness Sun altitude
Rises 05:37:06 0° 18° (NNE) 2,461 10.2 -9.0°
Reaches altitude 10° 05:39:09 10° 23° (NNE) 1,590 9.3 -8.5°
Maximum altitude 05:42:29 54° 101° (E) 561 7.4 -7.7°
Drops below altitude 10° 05:45:51 10° 179° (S) 1,603 9.4 -6.9°
Sets 05:47:55 0° 184° (S) 2,484 10.3 -6.4°
